Hourly Data Report for October 08, 2014

All times are specified in Local Standard Time (LST). Add 1 hour to adjust for Daylight Saving Time where and when it is observed.

FREDERICTON
NEW BRUNSWICK

45°52'08.000" N
66°32'14.000" W
20.70 m
8101505
71700
YFC

Download Data

Hourly Data (October 2014)
Hourly Data Report for October 8, 2014
Temp Definition
°C
Dew Point Temp Definition
°C
Rel Hum Definition
%
Wind Dir Definition
10's deg

Wind Spd Definition
km/h
Visibility Definition
km
Stn Press Definition
kPa
Hmdx Definition


Wind Chill Definition


Weather Definition


TIME
00:00 Legend Double Dagger 13.8 11.0 83 18 15 16.1 101.65     LegendNANA
01:00 Legend Double Dagger 13.7 10.9 83 19 11 16.1 101.62     LegendNANA
02:00 Legend Double Dagger 13.9 10.9 82 17 11 16.1 101.59     LegendNANA
03:00 Legend Double Dagger 13.8 11.0 83 17 8 16.1 101.54     LegendNANA
04:00 Legend Double Dagger 12.9 11.5 91 13 5 16.1 101.45     LegendNANA
05:00 Legend Double Dagger 12.6 11.2 91 13 9 16.1 101.36     LegendNANA
06:00 Legend Double Dagger 12.5 10.8 89 13 8 16.1 101.27     LegendNANA
07:00 Legend Double Dagger 12.5 10.9 90 9 8 16.1 101.21     LegendNANA
08:00 Legend Double Dagger 13.3 10.9 85 11 9 16.1 101.14     LegendNANA
09:00 Legend Double Dagger 14.2 11.3 83 13 13 16.1 101.06     LegendNANA
10:00 Legend Double Dagger 15.2 10.9 75 15 18 16.1 100.95     LegendNANA
11:00 Legend Double Dagger 15.5 11.5 77 14 15 16.1 100.78     Rain
12:00 Legend Double Dagger 14.3 12.3 88 16 17 8.1 100.75     Heavy Rain,Fog
13:00 Legend Double Dagger 14.1 13.2 94 11 9 16.1 100.57     Rain
14:00 Legend Double Dagger 15.2 14.6 96 8 11 16.1 100.39     Rain
15:00 Legend Double Dagger 17.3 15.8 91 16 17 16.1 100.25     LegendNANA
16:00 Legend Double Dagger 16.7 15.6 93 17 21 16.1 100.15     Rain
17:00 Legend Double Dagger 16.6 15.5 93 17 21 16.1 100.08     Rain
18:00 Legend Double Dagger 16.0 15.2 95 18 15 16.1 100.06     LegendNANA
19:00 Legend Double Dagger 15.3 14.5 95 20 17 16.1 100.10     LegendNANA
20:00 Legend Double Dagger 15.1 14.0 93 22 17 16.1 100.17     LegendNANA
21:00 Legend Double Dagger 14.5 13.5 94 22 13 16.1 100.20     LegendNANA
22:00 Legend Double Dagger 13.0 12.4 96 20 11 16.1 100.25     LegendNANA
23:00 Legend Double Dagger 11.3 10.9 97 22 11 16.1 100.29     LegendNANA

Notes on Data Quality.

Legend

  • E = Estimated
  • M = Missing
  • NA = Not Available
  • ‡ = Partner data that is not subject to review by the National Climate Archives
Date modified: